Regional Weather Roundup
Issued by NWS

Home | Current Version | Previous Version | Text Only | Print | Product List | Glossary Off
Versions: 1 2 3 4 5 6 7 8 9 10 11 12 13 14 15 16 17 18 19 20 21 22 23 24 25 26 27 28 29 30 31 32 33 34 35 36 37 38 39 40 41 42 43 44 45 46 47 48 49 50

000
ASUS43 KBIS 022310
RWRND

NORTH DAKOTA REGIONAL WEATHER ROUNDUP
NATIONAL WEATHER SERVICE BISMARCK ND
600 PM CDT WED SEP 02 2015

NOTE: "FAIR" INDICATES FEW OR NO CLOUDS BELOW 12,000 FEET WITH NO
SIGNIFICANT WEATHER AND/OR OBSTRUCTIONS TO VISIBILITY.


NDZ001>003-009>011-017-030000-
NORTHWEST NORTH DAKOTA

CITY           SKY/WX    TMP DP  RH WIND       PRES   REMARKS
WILLISTON      MOSUNNY  100  43  14 SW8       29.63F HX  96
MINOT          SUNNY     93  60  33 SE12      29.68S HX  93
MINOT AFB      SUNNY     94  60  31 SE13      29.67S HX  94
$$

NDZ018>021-031>035-040>046-030000-
SOUTHWEST NORTH DAKOTA

CITY           SKY/WX    TMP DP  RH WIND       PRES   REMARKS
BISMARCK       MOSUNNY   92  65  40 S10       29.71F HX  94
DICKINSON      SUNNY     97  43  15 S10       29.69F HX  93
GARRISON         N/A     92  62  36 SE12      29.70S HX  92
HETTINGER ARPT SUNNY     95  48  20 S9        29.74F HX  91
$$

NDZ004>008-012>016-024-026-027-054-030000-
NORTHEAST NORTH DAKOTA

CITY           SKY/WX    TMP DP  RH WIND       PRES   REMARKS
GRAND FORKS    MOSUNNY   89  63  41 SE16      29.76R HX  90
GRND FRKS AFB  SUNNY     88  65  47 S15       29.77S
DEVILS LAKE    MOSUNNY   84  66  54 SE12      29.75S
$$

NDZ022-023-025-028>030-036>039-047>053-030000-
SOUTHEAST NORTH DAKOTA

CITY           SKY/WX    TMP DP  RH WIND       PRES   REMARKS
FARGO          SUNNY     88  65  46 SE18G25   29.78S HX  90
JAMESTOWN      SUNNY     87  69  54 SE18      29.75F HX  91
$$




USA.gov is the U.S. government's official web portal to all federal, state and local government web resources and services.